CAPE
0 0 0 0 0 6 6 12 0 0 0 0 0 0 0 0 0 0 0 0 145 363 672 441 386 222 76 130 200 160 55 0 0 0 0 30 69 93 46 30 33 21 22 30 33 0 0 89 202
0 0 0 0 0 5 0 5 0 0 0 0 0 0 0 0 0 0 0 0 326 238 102 180 339 199 154 210 195 74 0 0 0 0 2 27 86 126 118 182 177 48 9 10 60 195 246 213 119
0 0 0 0 0 5 8 0 0 0 0 0 0 0 0 0 0 0 0 0 150 25 108 426 449 410 339 222 48 0 0 0 0 0 1 3 50 159 196 249 320 320 247 148 134 104 65 39 5
0 0 0 0 0 0 1 0 0 0 0 0 0 0 0 0 0 0 0 0 0 0 284 579 473 355 174 68 9 0 0 0 0 0 0 0 1 21 69 136 161 169 174 157 78 30 11 3 0
0 0 0 0 0 0 0 0 1 0 0 0 0 0 0 0 0 0 0 0 0 0 95 186 105 56 35 5 0 0 0 0 0 0 0 0 0 0 0 0 0 0 0 0 0 1 7 0 0
0 0 0 0 0 15 0 3 15 0 0 0 0 0 0 0 0 0 0 0 0 0 3 37 22 2 0 0 0 0 0 0 3 21 12 0 0 0 0 0 0 0 0 0 0 0 0 0 0
0 0 0 0 38 8 42 22 0 0 0 0 0 0 0 0 0 0 0 0 0 0 0 0 4 1 0 0 0 0 0 0 0 0 0 0 0 0 0 0 0 0 0 0 0 0 0 0 0
0 0 0 0 19 23 48 33 21 0 0 0 0 0 0 0 0 0 0 0 0 0 0 0 0 0 0 0 0 0 0 0 0 0 0 0 0 0 0 0 0 0 0 0 0 0 0 0 0
0 0 0 7 26 5 13 17 55 8 0 0 0 0 0 0 0 0 0 0 0 0 0 0 0 0 0 0 0 0 0 0 0 0 0 0 0 0 0 4 10 0 0 3 0 0 0 0 0
0 0 0 36 35 25 134 208 127 6 0 0 0 0 0 0 0 0 14 49 0 0 0 0 0 0 0 0 3 20 0 0 2 13 27 45 100 61 46 67 139 213 112 247 62 23 12 47 3
0 0 43 76 31 73 220 138 110 0 0 21 0 0 0 0 1 0 41 145 80 51 13 19 9 4 86 159 34 38 49 82 44 99 117 158 234 197 213 313 380 422 383 314 304 281 173 130 237
0 0 94 129 39 49 44 0 0 21 47 12 0 0 0 0 0 0 60 200 97 233 277 291 188 186 233 456 452 156 250 350 310 290 303 299 234 939 975 1094 1115 938 929 1047 1021 830 710 406 296
0 3 124 153 96 16 0 0 0 4 89 12 0 25 12 90 51 28 0 41 118 401 413 603 399 424 514 618 862 466 361 343 578 739 744 913 1020 938 1044 1030 676 498 598 879 723 757 786 746 788
0 2 103 107 27 2 0 0 0 0 34 27 23 23 434 762 832 675 480 561 820 911 1014 1175 1178 1241 1011 1294 1216 1112 1092 986 701 612 528 411 429 522 571 374 232 190 213 315 164 97 186 282 390
0 5 42 77 19 0 0 0 0 0 52 72 99 432 1090 1227 1142 1121 1221 1261 1286 1302 1395 1507 1456 1582 1811 1968 1673 1276 953 625 459 278 128 114 95 94 114 57 1 1 43 15 0 0 0 32 126
0 0 0 19 31 6 182 113 0 312 387 242 538 892 1077 1176 1171 1246 1310 1314 1310 1298 1352 1749 1718 1699 1806 1815 1453 928 517 309 141 30 13 0 0 0 0 0 0 0 6 0 0 0 0 0 26
0 0 0 0 48 193 23 311 303 572 555 776 888 1003 997 1071 1206 1274 1372 1359 1388 1363 1497 1898 1841 1845 1653 1302 800 434 135 35 4 0 0 0 0 0 0 0 0 0 0 0 0 0 0 0 0
0 0 0 0 0 94 71 365 98 405 684 950 994 1028 993 983 1055 1288 1272 1200 1178 1283 1341 1598 1818 1694 1396 962 477 95 0 0 0 0 0 0 0 0 0 0 0 0 0 0 0 0 0 0 0
0 0 0 0 0 4 142 536 510 651 864 880 1021 1024 1000 899 1087 1132 986 859 788 853 879 723 1412 1207 1163 812 507 214 1 0 0 0 0 0 0 0 0 0 0 0 0 0 0 0 0 0 0
0 0 0 0 0 0 252 585 819 847 924 845 883 950 1002 987 1092 899 720 521 351 274 247 143 463 471 480 287 385 183 1 0 0 0 0 0 0 0 0 0 0 0 0 0 0 0 0 0 0
0 0 0 0 0 0 29 138 468 498 787 802 754 864 1012 1016 830 628 458 289 102 15 60 0 7 60 163 13 20 29 0 0 0 0 0 0 0 0 0 0 0 0 0 0 0 0 0 0 0
0 0 0 0 0 0 0 0 4 132 336 727 668 770 915 785 697 460 275 136 33 0 0 0 0 0 0 0 0 0 0 0 0 0 0 0 0 0 0 0 0 0 0 0 0 0 0 0 0
0 0 0 0 0 0 0 0 0 0 22 132 275 752 767 723 665 351 175 67 0 0 0 0 0 0 0 0 0 0 0 0 0 0 0 0 0 0 0 0 0 0 0 0 0 0 0 0 0
0 0 0 0 0 0 0 0 0 0 0 2 16 769 691 551 363 124 41 0 0 0 0 0 0 0 0 0 0 0 0 0 0 0 0 0 0 0 0 0 0 0 0 0 0 0 0 0 0
0 0 0 0 0 0 0 0 0 0 0 0 4 567 650 470 225 43 0 0 0 0 0 0 0 0 0 0 0 0 0 0 0 0 0 0 0 0 0 0 0 0 0 0 0 0 0 0 0
0 0 0 0 0 0 0 0 0 0 0 0 180 459 496 333 86 4 0 0 0 0 0 0 0 0 0 0 0 0 0 0 0 0 0 0 0 0 0 0 0 0 0 0 0 0 0 0 0
0 0 0 0 0 0 0 0 0 0 0 110 415 519 496 290 56 2 0 0 0 0 0 0 0 0 0 0 0 0 0 0 0 0 0 0 0 0 0 0 0 0 0 0 0 0 0 0 0
0 0 0 0 0 0 0 0 0 0 0 13 374 484 360 178 10 0 0 0 0 0 0 0 0 0 0 0 0 0 0 0 0 0 0 0 0 0 0 0 0 0 0 0 0 0 0 0 0
0 0 0 0 0 0 0 0 0 0 0 0 0 86 284 175 0 0 0 0 0 0 0 0 0 0 0 0 0 0 0 0 0 0 0 0 0 0 0 0 0 0 0 0 0 0 0 1 0
0 0 0 0 0 0 0 0 0 0 0 0 0 0 113 53 22 0 0 0 0 0 0 0 0 0 0 0 0 0 0 0 0 0 0 0 0 0 0 0 0 0 0 0 0 0 0 0 0
CIN
0 0 0 0 0 -246 -166 -141 0 0 0 0 0 0 0 0 0 0 0 0 -305 -158 -92 -118 -118 -171 -319 -279 -232 -262 -353 0 0 0 0 -414 -341 -313 -393 -428 -428 -466 -447 -417 -390 0 -10 -302 -217
0 0 0 0 0 -51 0 -193 0 0 0 0 0 0 0 0 0 0 0 0 -170 -204 -289 -214 -148 -208 -247 -215 -228 -358 0 0 0 0 -254 -408 -306 -269 -277 -229 -234 -368 -468 -455 -344 -203 -178 -203 -285
0 0 0 0 0 -37 -94 -33 0 0 0 0 0 0 0 0 0 0 0 0 -266 -92 -294 -175 -157 -151 -169 -205 -357 0 0 0 0 0 -140 -496 -345 -254 -227 -197 -158 -155 -189 -233 -232 -255 -313 -353 -125
0 0 0 0 0 0 -42 -1 -6 0 0 0 0 0 0 0 0 0 0 0 0 -5 -236 -147 -161 -195 -254 -311 -274 0 0 0 0 0 0 0 -230 -403 -339 -287 -262 -249 -239 -242 -301 -354 -381 -433 0
0 0 0 0 0 0 0 -37 -52 0 0 0 0 0 0 0 0 0 0 0 0 0 -337 -272 -290 -339 -372 -338 0 0 0 0 0 0 0 0 0 0 0 0 0 0 0 0 0 -275 -284 0 0
0 0 0 0 0 -134 0 -153 -210 0 0 0 0 0 0 0 0 0 0 0 0 0 -159 -418 -408 -106 0 0 0 0 0 0 -354 -428 -444 0 0 0 0 0 0 0 0 0 0 0 0 0 0
0 0 0 0 -139 -155 -194 -259 0 0 0 0 0 0 0 0 0 0 0 0 0 0 0 0 -394 -216 0 0 0 0 0 0 0 0 0 0 0 0 0 0 0 0 0 0 0 0 0 0 0
0 0 0 0 -112 -129 -182 -216 -266 0 0 0 0 0 0 0 0 0 0 0 0 0 0 0 0 0 0 0 0 0 0 0 0 0 0 0 0 0 0 0 0 0 0 0 0 0 0 0 0
0 0 0 -130 -149 -186 -117 -184 -245 -230 0 0 0 0 0 0 0 0 0 0 0 0 0 0 0 0 0 0 0 0 0 0 0 0 0 0 0 0 0 -90 -83 0 -7 -97 -43 0 0 0 0
0 0 0 -190 -184 -185 -173 -132 -165 -161 0 0 0 0 0 0 0 0 -147 -214 0 0 0 0 0 0 0 0 -84 -320 0 0 -96 -232 -205 -320 -303 -291 -154 -246 -217 -185 -210 -171 -212 -118 -138 -237 -153
0 0 -153 -172 -244 -210 -175 -137 -168 0 0 -234 0 0 0 0 -313 0 -217 -195 -241 -295 -332 -348 -372 -201 -375 -306 -399 -423 -400 -384 -370 -339 -315 -294 -266 -261 -228 -193 -186 -177 -188 -192 -204 -208 -230 -235 -199
0 0 -126 -289 -275 -214 -134 0 0 -187 -211 -224 0 0 0 0 0 0 -217 -203 -265 -230 -254 -278 -361 -329 -321 -274 -256 -332 -309 -306 -285 -277 -276 -265 -259 -102 -86 -98 -99 -108 -106 -88 -96 -122 -145 -207 -227
0 -78 -219 -253 -266 -265 -43 0 0 -64 -269 -286 0 -102 -84 -152 -48 -57 0 -290 -248 -176 -227 -222 -312 -301 -275 -231 -162 -231 -283 -309 -283 -226 -207 -171 -132 -122 -123 -135 -185 -217 -186 -123 -149 -146 -136 -140 -130
0 -25 -212 -306 -258 -91 0 0 0 0 -246 -275 -142 -109 -84 -69 -98 -150 -125 -153 -137 -155 -150 -132 -126 -127 -153 -102 -96 -163 -189 -201 -254 -294 -296 -297 -270 -233 -231 -292 -323 -299 -288 -265 -318 -361 -304 -241 -230
0 -42 -282 -358 -281 0 0 0 0 0 -215 -142 -167 -125 -91 -100 -108 -134 -155 -153 -161 -167 -190 -167 -164 -139 -112 -94 -145 -201 -228 -287 -319 -372 -418 -421 -433 -412 -393 -416 -16 -32 -397 -457 0 0 -5 -420 -319
0 0 0 -263 -323 -42 -168 -76 0 -134 -169 -156 -158 -116 -107 -113 -129 -143 -156 -185 -184 -183 -215 -206 -176 -169 -174 -158 -188 -256 -342 -388 -438 -506 -541 0 0 0 0 0 0 0 -315 0 0 0 0 0 -429
0 0 0 0 -191 -149 -180 -108 -169 -151 -164 -132 -135 -138 -144 -147 -162 -191 -211 -237 -253 -228 -205 -178 -184 -157 -167 -198 -277 -363 -450 -516 -291 0 0 0 0 0 0 0 0 0 0 0 0 0 0 0 0
0 0 0 0 0 -162 -163 -100 -196 -175 -124 -101 -128 -137 -149 -151 -179 -233 -244 -276 -275 -251 -237 -209 -152 -144 -183 -237 -339 -463 0 0 0 0 0 0 0 0 0 0 0 0 0 0 0 0 0 0 0
0 0 0 0 0 -26 -85 -91 -146 -100 -46 -74 -110 -146 -169 -156 -237 -281 -307 -325 -346 -337 -293 -315 -162 -171 -164 -196 -264 -353 -63 0 0 0 0 0 0 0 0 0 0 0 0 0 0 0 0 0 0
0 0 0 0 0 0 -95 -55 -85 -79 -77 -102 -126 -174 -217 -287 -306 -349 -361 -380 -403 -447 -460 -482 -348 -302 -257 -291 -278 -369 -50 0 0 0 0 0 0 0 0 0 0 0 0 0 0 0 0 0 0
0 0 0 0 0 0 -82 -66 -81 -106 -78 -82 -130 -165 -241 -314 -386 -425 -458 -484 -557 -427 -528 0 -245 -447 -342 -416 -444 -412 0 0 0 0 0 0 0 0 0 0 0 0 0 0 0 0 0 0 0
0 0 0 0 0 0 0 0 -14 -72 -89 -95 -137 -198 -239 -352 -403 -491 -536 -614 -633 0 0 0 0 0 0 0 0 0 0 0 0 0 0 0 0 0 0 0 0 0 0 0 0 0 0 0 0
0 0 0 0 0 0 0 0 0 0 -45 -125 -198 -207 -250 -357 -398 -517 -605 -643 0 0 0 0 0 0 0 0 0 0 0 0 0 0 0 0 0 0 0 0 0 0 0 0 0 0 0 0 0
0 0 0 0 0 0 0 0 0 0 0 -42 -15 -223 -276 -356 -477 -593 -702 -34 0 0 0 0 0 0 0 0 0 0 0 0 0 0 0 0 0 0 0 0 0 0 0 0 0 0 0 0 0
0 0 0 0 0 0 0 0 0 0 0 0 -11 -280 -316 -385 -480 -577 -97 0 0 0 0 0 0 0 0 0 0 0 0 0 0 0 0 0 0 0 0 0 0 0 0 0 0 0 0 0 0
0 0 0 0 0 0 0 0 0 0 0 0 -259 -241 -362 -413 -461 -331 0 0 0 0 0 0 0 0 0 0 0 0 0 0 0 0 0 0 0 0 0 0 0 0 0 0 0 0 0 0 0
0 0 0 0 0 0 0 0 0 0 0 -161 -196 -313 -324 -336 -428 -310 0 0 0 0 0 0 0 0 0 0 0 0 0 0 0 0 0 0 0 0 0 0 0 0 0 0 0 0 -7 0 0
0 0 0 0 0 0 0 0 0 0 0 -65 -144 -180 -252 -328 -386 0 0 0 0 0 0 0 0 0 0 0 0 0 0 0 0 0 0 0 0 0 0 0 0 0 0 0 0 0 0 0 0
0 0 0 0 0 0 0 0 0 0 0 0 0 -129 -163 -243 0 0 0 0 0 0 0 0 0 0 0 0 0 0 0 0 0 0 0 0 0 0 0 0 0 0 0 0 0 0 0 -26 0
0 0 0 0 0 0 0 0 0 0 0 0 0 -3 -178 -226 -318 0 0 0 0 0 0 0 0 0 0 0 0 0 0 0 0 0 0 0 0 0 0 0 0 0 0 0 0 0 0 0 0
Wind_Speed
14 15 17 19 12 12 12 13 14 19 8 23 18 15 15 14 13 15 21 22 23 27 29 25 23 22 19 19 19 19 18 16 15 15 16 17 17 17 17 17 16 16 16 15 14 14 14 15 15
15 16 18 16 4 11 4 18 15 2 31 29 22 15 14 14 14 22 24 22 24 24 26 25 23 22 22 22 19 17 17 17 17 17 17 17 17 17 18 17 17 17 16 14 13 14 15 15 16
16 17 12 9 9 10 7 20 27 24 16 14 23 5 17 17 23 24 24 26 26 23 26 24 23 21 19 18 17 16 15 15 15 16 16 16 16 16 16 16 16 16 16 15 15 15 16 17 18
18 17 10 12 15 12 18 24 24 24 24 23 22 20 11 24 25 25 28 27 26 25 25 25 23 22 21 19 17 16 15 15 15 15 15 15 15 15 16 16 16 16 16 16 16 16 18 19 20
18 12 14 15 18 11 18 22 22 24 24 23 22 20 20 21 28 30 28 27 26 25 25 24 24 23 21 20 18 17 16 16 15 15 15 15 15 16 16 16 16 16 17 17 17 18 19 20 21
12 12 13 15 11 10 8 21 22 21 24 25 23 22 19 27 28 28 27 25 24 24 22 21 21 21 21 20 19 18 18 17 17 17 17 17 17 17 17 17 17 18 18 18 18 18 18 19 19
12 12 16 15 9 8 14 18 15 19 20 17 22 15 19 22 24 24 23 22 21 21 21 21 21 20 19 19 18 18 18 18 18 18 17 17 18 17 18 18 18 18 18 19 19 19 19 19 20
16 13 17 14 7 5 10 9 17 17 17 20 22 15 19 20 23 21 19 19 19 20 20 20 21 21 20 19 19 18 18 17 17 17 17 17 17 17 17 17 17 16 17 19 19 21 22 22 21
16 14 19 13 6 4 7 8 13 18 19 15 18 20 19 24 22 18 17 17 16 16 17 18 18 19 18 18 18 18 18 17 17 16 16 17 17 16 16 16 17 16 16 17 18 21 22 22 22
13 14 14 8 16 10 10 11 13 17 16 14 14 22 22 24 23 21 19 18 17 16 17 15 16 16 16 16 17 16 16 16 15 15 15 15 16 18 19 16 13 8 12 15 17 20 19 20 20
13 11 5 8 12 15 11 12 13 13 9 11 14 19 22 23 22 20 18 18 18 17 16 15 15 14 14 13 14 13 12 13 12 12 12 16 19 22 21 22 25 25 25 27 28 29 29 27 25
16 6 2 7 10 11 12 12 11 9 9 15 15 18 19 18 15 16 20 17 13 16 15 14 12 12 11 11 12 12 11 10 10 11 15 18 21 22 23 24 24 25 26 27 26 27 28 29 27
7 6 3 7 4 10 10 9 9 11 12 10 15 15 14 9 8 8 10 12 13 14 14 12 13 13 12 11 13 13 12 15 15 17 18 18 20 23 24 25 26 27 28 28 29 30 30 31 30
8 9 8 3 6 7 9 12 11 11 13 14 14 14 10 10 10 10 11 13 15 14 14 13 12 12 11 11 13 15 15 16 17 18 19 20 22 23 25 26 27 29 29 30 30 31 32 33 33
12 13 7 7 7 7 10 12 11 10 14 16 13 11 12 13 13 14 16 15 14 12 11 11 11 12 13 13 13 14 15 16 17 19 20 22 24 25 25 27 29 30 30 31 31 33 34 35 35
3 6 5 7 4 6 12 8 11 20 12 15 16 14 12 12 13 13 12 11 9 8 9 11 10 12 14 13 13 14 15 16 17 19 21 23 25 26 27 28 30 31 30 31 32 34 34 34 35
14 13 16 6 4 2 9 4 14 12 16 19 17 14 11 10 10 8 8 7 8 7 9 10 11 11 12 13 14 15 16 17 18 20 22 24 25 26 27 28 29 29 30 31 32 33 33 35 36
13 17 21 22 7 5 4 4 15 21 19 18 17 14 10 8 6 5 5 5 8 9 10 11 11 10 11 11 13 14 16 18 19 22 23 24 25 26 27 28 29 30 30 32 33 33 33 33 36
19 21 23 31 27 5 6 5 15 16 18 16 14 11 6 6 7 7 6 6 7 9 10 12 8 10 8 10 11 13 15 17 19 21 23 24 25 27 28 28 29 30 31 31 32 32 33 34 36
30 31 29 25 18 6 3 5 14 16 17 16 13 10 7 7 9 8 6 5 6 7 9 11 9 9 10 11 11 11 12 15 17 20 22 24 25 26 27 28 29 30 31 31 32 32 32 31 34
28 24 15 15 16 10 4 1 4 8 10 12 13 11 9 10 10 8 9 9 6 5 7 10 10 9 10 10 10 10 13 15 17 19 21 23 25 26 27 28 29 30 31 31 31 32 32 33 33
18 17 17 17 9 10 7 15 4 8 13 15 12 12 12 11 10 7 8 8 8 7 7 9 10 9 10 7 7 8 10 14 15 16 19 22 24 26 26 27 28 30 30 31 31 31 31 32 33
20 23 18 16 14 11 13 19 21 16 6 14 13 16 15 15 12 8 5 7 8 8 8 9 8 9 9 7 6 9 11 14 15 15 19 21 23 25 26 27 28 29 30 30 31 32 32 32 31
17 15 19 18 17 17 16 21 31 24 17 12 14 17 17 14 10 6 4 7 7 8 9 8 7 8 8 8 8 9 11 13 15 14 17 20 23 25 26 27 28 29 29 30 30 31 31 31 30
12 14 18 19 20 22 24 25 28 30 20 8 14 18 16 14 10 5 3 3 5 6 7 7 5 6 7 8 9 10 12 14 15 15 16 19 22 24 26 27 28 30 30 29 30 31 31 31 31
11 11 15 22 24 25 27 27 24 22 20 10 6 13 11 10 8 6 4 1 3 5 6 5 4 5 6 7 9 11 12 14 16 17 18 20 22 23 26 28 30 32 31 31 30 30 31 31 32
11 15 15 18 19 22 21 18 17 17 18 11 2 5 9 9 8 6 4 1 2 4 5 3 3 3 4 6 8 11 10 13 15 17 18 20 22 23 26 29 32 33 33 33 33 33 33 30 33
9 9 17 17 20 22 19 21 20 14 12 10 4 1 5 6 6 6 5 2 1 2 4 4 4 4 3 4 5 8 9 12 14 16 18 21 22 24 28 31 33 32 33 33 34 34 31 33 35
12 13 15 15 16 21 22 19 13 9 8 5 3 1 5 7 8 9 7 5 1 4 5 6 5 4 2 2 4 6 9 11 14 16 19 21 23 27 30 31 33 33 33 33 34 34 33 35 37
16 22 18 19 21 19 20 21 18 7 3 5 6 6 7 9 11 10 8 6 4 4 4 2 3 2 2 2 3 5 9 13 14 16 19 23 24 28 30 31 33 33 33 32 32 33 33 35 37
Wind_Direction
173 144 99 93 224 11 195 195 187 153 257 55 64 43 30 331 272 37 110 101 98 110 120 98 92 86 76 73 70 63 53 43 36 33 33 36 38 36 35 33 30 29 31 34 28 16 4 354 357
172 146 128 144 270 15 272 159 176 340 93 67 46 16 350 351 10 79 89 97 103 100 104 98 92 87 84 81 70 56 50 45 42 40 39 39 37 36 36 34 31 30 27 21 10 354 342 333 328
191 163 87 252 266 222 232 157 86 104 153 153 109 352 17 50 69 95 99 105 105 91 97 93 89 81 75 68 61 54 45 38 34 33 32 32 30 28 26 24 22 22 21 16 7 354 341 328 314
188 173 302 310 228 191 208 110 91 81 92 66 51 19 10 83 89 92 103 101 96 91 92 91 87 84 79 71 59 51 44 37 31 29 27 25 23 21 18 15 12 8 7 4 358 351 345 336 323
191 318 312 329 259 354 85 106 97 72 60 56 53 54 45 59 88 100 101 101 96 94 93 93 93 89 81 73 64 55 46 39 32 26 23 21 20 18 14 10 8 5 2 358 354 349 346 340 333
278 345 313 335 348 34 35 104 93 57 60 63 59 62 50 96 96 100 98 99 96 96 91 88 88 85 82 77 71 65 58 51 46 41 37 33 28 23 19 15 10 6 4 4 3 1 357 354 350
280 328 312 336 358 50 87 91 61 64 69 50 79 49 77 100 101 99 93 93 93 93 94 93 93 88 83 77 75 72 69 64 59 53 46 38 34 33 33 28 21 18 15 7 3 2 0 356 351
251 323 320 333 71 50 77 48 61 26 30 77 77 57 99 105 107 98 89 89 92 98 98 99 98 94 91 88 87 84 80 74 68 63 56 48 42 37 36 26 24 25 18 9 0 349 344 343 344
242 305 319 342 73 53 71 16 24 28 72 49 49 92 92 110 106 93 90 87 89 90 97 98 96 95 93 83 89 92 87 84 77 71 67 55 46 41 40 30 16 21 18 13 5 354 349 347 345
270 330 348 34 87 83 66 53 50 58 34 27 42 100 100 113 113 109 107 107 111 107 107 97 96 95 90 73 86 90 91 91 89 92 78 61 39 22 15 30 41 58 28 13 4 353 355 352 349
300 352 56 69 82 97 83 73 75 76 43 79 102 111 117 119 125 121 121 117 113 109 103 106 103 97 91 66 66 68 72 46 49 81 69 29 7 355 8 5 352 342 336 329 328 322 322 327 331
322 80 26 77 88 91 97 81 81 32 46 95 111 118 122 132 130 128 137 117 92 116 116 104 95 95 85 60 39 35 52 68 68 57 16 357 343 347 349 349 349 348 345 340 340 339 335 330 332
32 79 68 94 83 83 78 59 22 66 65 81 112 122 115 80 97 76 95 99 100 93 96 88 91 99 94 76 42 44 49 11 4 1 2 3 352 347 349 348 342 338 336 336 332 329 327 325 325
357 90 99 72 70 61 68 21 3 98 97 108 113 118 79 73 73 77 89 92 93 85 84 75 68 55 48 39 15 15 17 11 4 359 360 357 353 349 349 346 342 338 337 337 337 333 328 325 323
94 88 39 82 79 18 49 24 67 45 103 115 102 97 89 81 74 81 96 98 94 79 65 64 51 34 22 10 19 12 17 12 6 0 356 354 352 351 349 346 343 341 340 338 336 332 329 324 322
41 50 13 136 83 94 355 60 102 127 116 130 122 115 101 93 97 88 86 85 70 56 25 18 45 23 19 25 29 23 16 13 10 7 3 358 355 353 349 346 343 343 344 342 340 336 332 330 326
296 308 301 331 164 115 335 94 145 136 131 136 125 117 108 96 93 83 69 49 23 20 11 10 17 18 29 33 32 26 22 15 12 7 0 356 355 354 353 351 349 349 348 345 342 340 338 334 330
300 305 294 302 325 224 177 140 154 157 145 135 130 127 117 111 107 92 69 37 18 10 4 1 9 22 31 31 27 23 17 13 8 5 4 2 360 358 356 353 351 350 349 346 345 344 344 343 335
295 301 302 291 309 226 185 142 156 156 147 146 149 146 114 89 75 90 73 46 19 357 352 351 5 0 20 13 14 11 9 11 11 12 10 6 3 1 359 357 356 354 351 349 348 347 346 347 344
266 269 288 306 337 321 148 162 157 162 176 180 175 163 138 103 93 86 88 49 21 7 356 354 0 360 360 358 4 15 20 18 17 14 11 9 6 5 3 0 358 355 352 350 350 349 349 350 348
281 288 315 325 326 325 57 22 193 199 197 194 192 181 162 147 124 104 101 99 70 29 6 356 353 355 354 3 18 25 24 16 12 10 11 12 12 9 6 4 2 359 358 355 354 352 352 346 349
295 304 305 312 333 313 339 313 327 221 216 209 205 195 180 160 145 117 100 78 57 33 16 359 351 354 359 18 35 29 15 5 8 14 14 11 10 9 7 5 3 1 359 357 355 354 353 351 346
295 296 302 314 316 311 307 307 305 318 249 228 223 202 190 177 167 145 111 81 58 41 15 3 0 357 1 13 28 20 13 12 15 19 15 11 8 7 5 3 2 1 360 359 356 353 351 350 346
303 300 300 304 305 297 305 311 303 302 303 233 219 201 195 185 176 158 106 84 62 41 22 14 15 10 17 25 28 28 22 13 12 14 9 6 4 3 2 2 1 0 359 358 356 354 354 350 347
314 308 299 297 298 294 300 310 316 305 318 280 214 200 194 190 188 191 151 93 61 41 26 16 21 16 17 21 24 19 16 11 9 7 4 2 0 1 359 359 357 355 353 353 353 351 350 348 346
319 316 302 295 296 297 299 301 317 330 322 338 169 176 190 194 203 204 190 153 41 29 26 37 52 34 27 24 16 12 9 11 10 8 6 3 3 1 359 355 352 349 350 348 347 345 343 345 342
309 311 315 309 312 306 307 313 322 336 352 11 67 177 184 197 215 218 217 287 22 24 23 83 89 55 39 30 14 4 8 8 7 9 6 1 360 360 356 352 348 347 347 346 344 341 339 341 338
305 319 310 312 305 303 307 307 310 315 329 359 16 233 220 213 227 227 230 238 338 32 51 89 113 107 74 40 20 12 8 5 6 9 4 359 359 357 353 350 350 349 348 346 345 343 343 340 338
308 307 312 316 316 307 306 305 323 322 321 329 340 217 207 222 235 234 236 242 230 117 116 109 113 130 114 45 13 4 0 2 1 2 2 2 357 354 350 349 348 346 345 345 343 341 341 338 335
309 304 305 300 303 311 310 306 319 326 304 302 292 283 249 244 253 245 231 227 197 161 155 144 109 95 102 17 13 4 356 355 359 359 1 356 354 351 350 349 348 346 345 346 346 343 342 341 339